ROMMA est une association bénévole à but non lucratif. Votre soutien est indispensable : ADHERER à ROMMA ou FAIRE un DON

Val-d'Arly - (73, Savoie)

Beaufortain (2050 m)   Longitude: 06° 35' 21" E   Latitude: 45° 46' 53" N Station romma n°118
 

Détail journalier du     <<     >>

Température Humidité Vent Dir Rafale Dir. rafale Ensol.
Heure (°C) (%) (km/h) (km/h) (min)
01:00 -4.88920---27---0
02:00 -4.18525---32---0
03:00 -4.78521---31---0
04:00 -5.39217---27---0
05:00 -5.49317---29---0
06:00 -5.4919---18---0
07:00 -5.3927---19---0
08:00 -5.1926---18---10
09:00 -4.6913---8---60
10:00 -4.4913---8---40
11:00 -4.3906---10---20
12:00 -3.9927---13---60
13:00 -2.6922---10---50
14:00 -3.8934---16---20
15:00 -3.99117---31---50
16:00 -4.29114---21---60
17:00 -4.29012---24---20
18:00 -4.49122---34---0
19:00 -4.79113---21---0
20:00 -4.7915---19---0
21:00 -4.2895---13---0
22:00 -3.1836---13---0
23:00 -3.1828---15---0
minuit -3.28311---18---0

Graphique du 10-11-2019

 

Serveur OMMA